This demonstration page uses our WeatherBlox Daily Observations layout. Learn more.

Left ArrowRight Arrow

47.50024, -111.30081

Hourly Observations for May 28, 2022

Temp ( °F °C ) Dew Point ( °F °C ) Humidity (%) Winds ( mph kmh ) Pressure ( in mb ) Visibility ( mi km ) Precip ( " mm )
12:53 am 00:53 Clear 52 11.1 38 3.3 59 59 NW 3 6 29.68 1005 10 16 0.00 0.00
1:53 am 01:53 Cloudy 53 11.7 37 2.8 55 55 WSW 8 13 29.67 1005 10 16 0.00 0.00
2:53 am 02:53 Cloudy 52 11.1 39 3.9 61 61 SW 5 7 29.66 1005 10 16 0.00 0.00
3:53 am 03:53 Cloudy 51 10.6 42 5.6 71 71 SW 9 15 29.66 1005 10 16 0.00 0.00
4:53 am 04:53 Cloudy with Light Rain 51 10.6 43 6.1 74 74 SW 8 13 29.67 1005 10 16 0.00 0.00
5:53 am 05:53 Cloudy with Light Rain 49 9.4 44 6.7 83 83 SSW 6 9 29.68 1005 10 16 0.01 0.25
6:53 am 06:53 Cloudy 51 10.6 44 6.7 77 77 SW 7 11 29.68 1005 10 16 0.00 0.00
7:53 am 07:53 Sunny 55 12.8 41 5 59 59 W 10 17 29.66 1005 10 16 0.00 0.00
8:53 am 08:53 Sunny 59 15 38 3.3 46 46 W 7 11 29.65 1004 10 16 0.00 0.00
9:53 am 09:53 Sunny 60 15.6 36 2.2 41 41 W 12 19 29.64 1004 10 16 0.00 0.00
10:53 am 10:53 Sunny 63 17.2 33 0.6 33 33 W 14 22 29.62 1003 10 16 0.00 0.00
11:53 am 11:53 Mostly Cloudy 64 17.8 34 1.1 33 33 W 10 17 29.61 1003 10 16 0.00 0.00
12:53 pm 12:53 Cloudy 64 17.8 32 0 30 30 W 13 20 29.60 1002 10 16 0.00 0.00
1:53 pm 13:53 Cloudy 63 17.2 31 -0.6 30 30 undefined N/A 29.58 1002 10 16 0.00 0.00
2:53 pm 14:53 Cloudy 63 17.2 32 0 31 31 SW 8 13 29.57 1002 10 16 0.00 0.00
3:53 pm 15:53 Cloudy 60 15.6 35 1.7 39 39 SSW 8 13 29.59 1002 10 16 0.00 0.00
4:53 pm 16:53 Cloudy 60 15.6 37 2.8 42 42 SSW 6 9 29.57 1002 10 16 0.00 0.00
5:53 pm 17:53 Cloudy 61 16.1 36 2.2 39 39 SW 3 6 29.58 1002 10 16 0.00 0.00
6:22 pm 18:22 Cloudy 63 17.2 32 0 31 31 N 10 17 29.47 998 10 16 0.00 0.00
6:53 pm 18:53 Cloudy 61 16.1 31 -0.6 32 32 NNW 9 15 29.57 1001 10 16 0.00 0.00
7:53 pm 19:53 Cloudy 60 15.6 32 0 35 35 NNW 7 11 29.56 1001 10 16 0.00 0.00
8:53 pm 20:53 Cloudy 57 13.9 33 0.6 41 41 NNW 6 9 29.56 1001 10 16 0.00 0.00
9:53 pm 21:53 Cloudy 55 12.8 33 0.6 44 44 NW 6 9 29.56 1001 10 16 0.00 0.00
10:53 pm 22:53 Cloudy 51 10.6 35 1.7 54 54 W 5 7 29.56 1001 10 16 0.00 0.00
11:53 pm 23:53 Cloudy 51 10.6 35 1.7 54 54 WNW 6 9 29.55 1001 10 16 0.00 0.00

Powered by AerisWeather